Presure
177 182 187 177 181 188 180 195 170 173 195 217 195 193 183 190 188 188 185 187 133 127 195 201 189 193 175 127 182 131 135 153 126 127 123 157 149 168 181 108 114 124 137
190 195 204 205 191 185 153 175 181 198 214 199 205 217 218 223 229 221 194 193 182 202 176 160 216 121 136 225 209 199 138 135 114 132 151 138 190 156 179 84 172 130 122
133 177 176 175 163 181 190 171 183 182 172 206 195 179 193 192 212 214 223 216 211 209 223 215 118 218 186 195 215 207 199 211 196 192 199 160 172 207 173 211 202 199 175
177 173 175 179 170 171 191 173 174 168 193 178 185 193 205 187 223 213 211 212 208 207 196 221 239 219 206 184 195 208 203 206 202 211 195 199 203 199 198 180 177 159 174
185 163 199 173 160 179 188 187 187 198 174 187 173 181 181 182 182 197 210 185 196 200 194 192 190 212 219 179 199 212 211 210 208 209 214 205 209 202 210 205 207 196 174
149 169 161 165 176 162 161 144 181 175 175 160 179 167 177 170 168 204 191 205 200 189 158 202 192 221 204 219 209 216 211 202 197 196 193 209 213 206 173 209 201 199 212
136 183 180 157 205 177 153 172 145 160 143 185 184 172 176 176 178 111 232 171 164 196 187 198 189 200 209 213 207 204 204 200 194 200 193 180 215 199 198 196 200 197 200
196 169 176 142 144 147 204 157 160 167 187 137 175 193 164 157 180 166 164 164 177 171 207 200 195 199 186 197 206 150 199 200 196 194 195 195 189 195 201 207 217 200 195
182 180 147 162 162 165 193 130 178 139 157 144 190 195 200 200 172 179 156 143 175 90 185 192 210 209 208 203 196 204 204 194 196 210 203 163 202 205 197 191 188 206 210
175 158 151 182 174 160 166 149 158 135 156 152 135 155 192 183 180 164 152 172 159 163 163 173 173 179 141 217 194 192 202 206 195 198 198 202 202 197 205 212 192 186 183
166 148 166 155 161 185 174 159 154 180 174 115 147 142 153 153 191 172 200 185 169 150 176 176 184 158 193 189 196 211 198 197 198 201 196 196 198 190 184 192 202 201 195
159 157 170 152 157 163 174 163 159 119 171 156 179 176 147 181 147 130 174 130 198 158 161 121 167 174 165 154 183 159 163 220 191 200 202 202 206 199 191 181 171 170 181
176 186 186 183 194 173 166 127 149 191 177 179 193 135 178 193 162 201 159 193 181 195 177 191 162 168 160 156 177 167 140 165 157 181 201 187 186 204 200 209 200 200 194
160 150 153 161 175 164 161 174 177 179 197 209 195 210 194 167 197 137 146 193 150 142 195 192 174 153 142 176 158 157 165 209 150 144 152 172 189 197 190 205 205 191 192
175 170 153 168 165 161 171 148 154 198 173 164 168 217 216 202 193 194 186 190 136 182 150 176 201 177 177 197 185 190 180 173 168 194 155 172 224 159 220 192 215 191 185
164 166 162 140 144 159 147 200 211 162 220 181 284 242 223 199 186 184 182 171 168 197 178 186 156 179 171 191 170 193 201 194 200 181 174 166 193 173 196 152 163 201 195
148 144 151 162 170 162 155 137 150 180 228 197 200 253 232 191 175 174 163 167 208 195 157 160 186 147 193 181 195 167 200 157 207 221 128 201 181 156 174 142 148 152 165
161 173 166 160 183 144 167 161 214 180 242 199 224 177 200 178 174 160 180 198 181 171 174 190 176 156 174 152 190 175 193 191 204 227 209 218 212 184 183 176 156 153 190
158 182 142 187 178 164 153 215 172 172 219 208 159 218 163 171 166 160 157 161 139 191 195 174 197 173 145 176 190 176 135 154 146 199 167 217 216 198 216 215 190 179 187
149 150 170 182 161 175 209 223 193 263 275 198 181 179 185 163 179 168 157 172 203 156 179 168 168 179 185 188 183 157 195 164 132 184 192 220 205 201 204 168 207 200 221
183 124 167 194 161 153 166 226 273 259 282 189 193 184 181 182 145 167 157 173 154 179 170 173 198 182 143 187 177 173 176 189 181 178 203 190 201 194 212 216 187 196 210
98 110 126 224 166 222 273 144 214 229 229 228 163 197 174 184 179 179 173 165 154 161 169 173 185 184 180 178 181 182 179 192 173 187 193 192 183 187 191 207 214 204 189
106 147 167 217 230 204 258 220 95 195 95 194 181 210 198 180 156 174 179 177 184 178 181 194 185 172 184 190 179 169 188 185 198 193 155 188 187 176 201 211 212 206 163
156 112 96 169 238 239 212 234 192 192 247 188 248 250 197 189 177 162 163 174 181 185 186 181 178 182 167 175 188 188 178 192 190 181 190 173 184 185 208 200 182 176 191
204 215 188 236 241 240 236 215 260 275 249 215 245 260 191 182 193 147 155 182 179 217 190 173 171 184 177 173 171 186 188 187 186 191 187 192 207 187 201 201 206 194 188
219 225 242 242 243 229 234 238 242 228 214 228 190 251 220 193 194 164 163 137 149 160 172 181 169 179 132 192 183 182 192 195 188 188 194 211 188 200 198 203 201 182 182
Wind_Speed
43 42 45 45 46 46 36 35 40 45 46 46 48 52 57 59 62 62 66 68 78 77 74 73 79 77 77 77 83 82 83 88 76 80 76 92 88 96 99 64 69 75 85
40 38 42 35 36 39 53 40 38 44 49 46 46 45 50 53 55 60 63 66 72 65 74 79 66 61 82 67 75 78 84 83 67 81 91 86 94 88 97 46 96 84 75
41 36 37 37 41 42 45 35 44 37 38 41 37 42 39 42 49 52 53 56 61 60 59 62 60 62 76 72 65 72 76 75 84 71 85 90 93 81 91 77 87 92 90
34 36 38 39 39 40 45 37 44 50 42 35 36 36 41 38 46 48 48 49 49 52 54 55 53 59 63 74 69 67 72 72 75 72 83 80 76 82 83 81 77 74 77
34 36 38 43 43 39 42 45 47 47 41 42 40 39 33 35 38 43 48 48 48 49 54 58 60 56 51 69 66 63 65 67 70 70 67 71 70 75 73 74 72 80 79
35 40 40 43 40 41 43 48 47 43 42 48 44 44 36 42 48 49 44 50 51 53 68 55 58 47 51 44 52 57 60 67 66 67 70 66 67 70 74 71 73 76 72
42 38 36 39 30 47 43 46 50 43 53 50 54 44 45 44 46 37 29 47 52 54 57 53 46 49 43 42 49 56 58 60 62 60 63 72 64 66 71 73 73 74 75
28 45 40 40 46 39 36 46 45 42 44 52 49 39 54 57 51 49 54 55 50 48 50 52 53 49 54 46 47 48 58 56 55 57 58 60 64 64 65 68 70 72 73
29 34 47 49 50 45 41 51 40 58 43 52 43 44 43 42 53 58 62 54 54 35 50 49 44 46 45 49 50 49 54 60 57 51 53 74 58 60 62 65 67 67 68
41 44 49 37 49 51 48 48 55 52 53 54 52 48 43 55 58 56 61 58 63 56 54 49 45 46 46 46 53 55 51 49 57 53 51 53 56 58 56 57 63 65 67
44 47 45 46 47 50 51 48 47 49 56 51 54 55 52 52 53 55 49 56 62 59 56 56 45 51 51 52 51 53 55 55 56 52 54 57 58 63 65 60 58 59 62
46 46 48 47 49 44 54 51 50 45 56 60 55 52 63 49 60 60 55 55 51 66 63 44 54 56 49 54 52 53 52 51 55 53 54 56 55 60 64 69 71 71 67
48 44 49 52 55 56 53 44 57 67 66 63 67 55 54 60 66 53 65 56 64 52 70 54 59 60 57 58 62 55 63 54 54 52 56 61 59 57 58 55 57 55 59
56 52 56 61 63 58 52 56 60 64 70 74 69 68 66 61 60 59 59 55 60 53 53 55 66 62 56 64 63 62 61 55 65 61 55 54 58 58 58 57 57 61 60
56 61 57 62 63 56 65 48 59 74 61 62 61 69 59 61 61 56 50 54 56 60 50 56 49 60 60 56 65 57 62 63 66 61 59 57 49 49 50 59 53 61 62
68 69 56 43 50 57 39 83 85 63 79 66 61 53 53 54 51 50 59 58 68 61 62 59 53 64 67 59 60 58 55 59 56 72 68 60 53 60 56 57 60 58 63
58 43 52 76 76 64 41 56 40 62 72 61 50 40 46 46 45 48 64 69 60 50 61 74 56 56 57 60 57 68 55 63 50 56 63 58 67 61 58 64 64 64 64
77 70 85 75 86 45 75 66 83 50 66 61 51 55 40 38 41 56 71 70 64 60 63 61 66 59 62 65 64 68 57 55 55 51 58 57 57 69 69 65 65 67 66
76 69 37 87 81 66 55 83 68 48 57 52 54 60 53 43 48 58 64 58 55 67 64 68 67 71 62 69 64 73 63 62 63 59 58 56 56 54 57 55 59 68 68
65 75 92 85 69 92 92 84 68 74 58 53 50 50 50 54 45 63 66 69 67 60 67 71 75 74 69 65 66 70 64 61 57 65 61 57 57 56 55 64 54 52 62
80 44 101 91 73 67 76 101 67 54 48 51 53 46 52 61 60 79 66 66 67 81 77 79 71 70 54 66 66 63 64 68 66 69 63 60 59 57 66 67 55 52 52
12 24 50 88 70 90 65 53 57 61 55 48 43 51 53 62 73 69 72 76 67 73 77 77 79 75 72 69 69 69 68 67 65 68 65 61 58 56 57 63 67 62 58
43 73 101 82 88 87 64 74 33 61 38 53 45 58 62 65 54 53 77 84 83 87 87 71 74 73 76 75 71 68 72 72 74 72 53 62 61 56 67 72 69 61 50
93 47 37 99 71 69 85 70 62 51 61 62 53 62 61 64 48 64 74 80 83 78 85 84 80 78 67 72 82 80 73 77 70 65 70 66 65 65 74 65 49 53 61
100 102 106 82 73 67 66 74 51 54 51 62 63 64 59 60 70 62 74 79 65 68 86 81 78 87 79 71 66 78 80 78 75 76 73 78 74 67 76 73 77 58 60
110 98 85 85 77 72 71 65 53 42 46 57 60 67 68 76 73 67 70 49 72 66 77 82 76 89 52 96 88 82 84 83 79 79 81 72 72 80 78 80 76 62 54
Wind_Direction
278 276 276 270 274 269 263 269 260 266 274 271 264 260 255 258 254 253 255 257 259 260 258 258 255 257 258 259 254 258 258 256 262 261 262 256 258 257 257 258 261 261 263
274 275 271 269 278 270 248 267 284 290 285 273 272 274 269 268 266 265 258 257 254 261 258 257 258 250 260 258 258 257 258 260 260 261 258 262 256 258 256 262 258 263 262
266 275 272 266 258 281 286 262 286 275 263 290 287 266 272 269 270 265 266 264 262 261 260 258 249 259 254 257 258 256 257 256 254 257 255 257 255 257 258 258 258 257 258
278 278 278 279 274 277 283 277 273 266 292 267 275 286 289 272 273 267 263 260 261 263 260 262 262 257 255 253 257 258 258 257 258 256 256 257 256 258 258 259 257 258 259
275 279 264 279 272 283 280 288 286 283 273 285 256 272 273 271 276 278 268 263 259 259 256 256 257 260 258 257 261 261 260 260 257 256 255 256 256 256 257 256 255 257 260
278 288 274 281 277 276 274 267 288 276 285 251 280 258 271 262 258 274 279 272 266 262 261 262 255 270 264 271 264 264 263 260 258 260 260 257 256 255 256 255 255 257 255
280 275 280 279 307 282 280 280 263 264 263 274 279 271 271 278 277 278 280 258 257 264 263 263 270 262 269 269 265 264 263 261 260 262 259 256 259 258 258 257 257 256 256
294 275 280 284 282 283 309 264 280 281 276 261 276 282 263 257 277 259 255 257 267 265 267 265 262 259 257 257 262 264 257 258 257 258 259 259 257 258 260 261 260 258 259
287 285 287 277 277 269 298 260 277 259 278 277 272 275 282 278 272 269 259 272 272 276 269 269 270 267 263 259 259 261 262 259 258 262 261 257 262 261 259 259 259 260 260
285 278 282 301 276 275 278 278 276 257 273 279 261 271 274 267 268 261 263 273 263 265 265 270 265 264 266 272 260 259 260 260 259 257 257 260 262 260 263 264 258 258 258
291 279 272 282 290 300 294 278 279 288 283 271 269 272 272 269 278 265 277 263 265 266 271 271 263 253 272 270 270 271 261 259 260 260 257 259 260 258 256 258 261 261 261
289 277 286 268 280 282 291 285 276 265 288 281 288 283 275 276 271 265 269 267 274 268 269 263 270 270 257 249 265 254 261 273 264 263 261 262 263 261 262 261 261 262 260
305 305 301 298 302 293 290 271 276 289 287 289 285 279 282 280 266 274 273 274 263 275 262 272 265 268 260 254 268 259 260 265 262 265 265 267 268 267 266 264 262 262 262
290 289 289 293 295 291 287 285 291 294 290 285 289 279 279 275 276 265 268 276 271 266 278 263 264 263 255 267 262 257 267 274 261 259 262 270 269 267 271 270 265 264 263
285 283 284 285 287 284 293 276 291 292 292 282 288 282 270 270 271 278 271 270 263 269 268 273 273 266 268 280 265 276 271 270 271 272 257 269 275 266 274 267 263 264 262
292 293 297 278 285 294 281 296 292 284 297 292 279 268 262 264 273 275 273 265 263 272 267 271 263 265 269 272 266 275 283 275 273 270 270 266 268 264 268 257 264 264 266
296 292 298 295 295 302 310 283 281 302 294 296 284 264 257 264 276 272 260 267 275 268 269 267 275 267 275 275 281 269 289 269 284 279 260 266 267 254 260 255 258 261 263
293 297 291 294 291 292 306 298 298 288 300 298 276 278 255 270 265 265 276 277 272 269 270 274 268 268 264 266 280 270 284 281 289 286 278 277 271 269 270 263 256 259 260
290 301 287 293 295 303 298 300 285 280 284 258 271 262 262 249 256 254 267 275 266 281 274 271 269 266 265 270 279 275 261 262 261 288 272 284 281 262 278 279 263 266 263
288 299 290 289 295 299 301 298 287 290 280 246 249 250 253 250 242 250 268 260 272 261 264 268 270 273 268 276 275 266 287 273 258 282 286 292 282 278 277 263 285 272 289
291 315 294 303 304 303 301 294 292 285 275 256 238 237 250 235 262 242 266 264 266 269 266 265 265 267 270 275 266 277 272 286 276 279 292 285 289 280 287 286 258 271 286
286 284 297 294 290 292 288 286 281 280 274 248 262 229 228 239 242 245 253 254 258 262 265 268 272 271 271 271 275 277 274 283 278 284 285 287 274 276 271 288 285 282 261
292 301 302 293 292 295 282 283 282 280 291 259 244 218 219 223 253 264 260 262 260 257 260 263 265 265 272 274 267 266 276 282 283 284 274 280 283 284 290 286 287 283 258
298 293 283 301 291 284 288 278 284 268 261 264 244 228 217 216 211 230 252 260 260 264 265 260 264 268 264 270 273 276 276 278 280 275 283 278 282 283 289 284 253 255 271
302 303 290 295 293 291 283 284 284 262 262 258 247 239 232 216 220 251 253 248 265 255 259 261 265 265 269 268 269 273 278 277 277 279 278 283 282 284 286 285 282 278 272
304 298 302 301 299 285 289 285 278 236 242 253 251 237 235 221 211 248 243 249 267 264 263 259 264 265 266 267 266 269 272 275 275 277 279 273 279 284 283 279 278 261 267